Other Public Products
Issued by NWS Grand Forks, ND

Home | Current Version | Previous Version | Text Only | Print | Product List | Glossary On
Versions: 1 2 3 4 5 6 7 8 9 10 11 12 13 14 15 16 17 18 19 20 21 22 23 24 25 26 27 28 29 30 31 32 33 34 35 36 37 38 39 40 41 42 43 44 45 46 47 48 49 50
000
FPUS83 KFGF 240610
OPUFGF
PRAIRIE TO PINES WEATHER ROUNDUP
NATIONAL WEATHER SERVICE EASTERN NORTH DAKOTA/GRAND FORKS ND
100 AM CDT SAT JUN 24 2017

 **SATELLITE DATA USED TO AUGMENT SKY COVER AT AUTOMATED STATIONS**
 *****  WEATHER ACROSS EASTERN NORTH DAKOTA  *****

CITY           SKY/WX    TMP DP  RH WIND       PRES   REMARKS
GRAND FORKS    CLOUDY    55  42  61 W10       29.97S
6HR MIN TEMP:  55; 6HR MAX TEMP:  63;

GRAND FORKS AF FAIR      50  40  69 NW6       29.98S
GRAND CITY NWS NOT AVBL
BUXTON         NOT AVBL
DEVILS LAKE    FAIR      51  41  68 W12       30.02F
6HR MIN TEMP:  49; 6HR MAX TEMP:  57;

FARGO          FAIR      50  39  66 W8        30.00S
6HR MIN TEMP:  50; 6HR MAX TEMP:  66;

WAHPETON ARPT  FAIR      48  37  66 NW7       30.03S
$$

 *****  WEATHER ACROSS CENTRAL AND WESTERN NORTH DAKOTA  *****

CITY           SKY/WX    TMP DP  RH WIND       PRES   REMARKS
JAMESTOWN      FAIR      48  39  71 W7        30.04F
6HR MIN TEMP:  48; 6HR MAX TEMP:  63;

BISMARCK       MOCLDY    50  39  66 SW5       30.10F
6HR MIN TEMP:  50; 6HR MAX TEMP:  66;

MINOT          CLOUDY    49  44  83 W14       30.08F
6HR MIN TEMP:  49; 6HR MAX TEMP:  63; 6HR PCP:  0.03;

MINOT AFB      MOCLDY    48  44  84 NW15      30.07R
6HR MIN TEMP:  48; 6HR MAX TEMP:  62; 6HR PCP:  0.06;

GARRISON         N/A     50  38  63 N14       30.10R
6HR MIN TEMP:  50; 6HR MAX TEMP:  62;

WILLISTON      CLOUDY    51  38  60 N9        30.17R
6HR MIN TEMP:  51; 6HR MAX TEMP:  68;

DICKINSON      FAIR      44  31  60 W8        30.14R
6HR MIN TEMP:  44; 6HR MAX TEMP:  65;

HETTINGER      FAIR      42  31  64 CALM      30.19S
6HR MIN TEMP:  41; 6HR MAX TEMP:  67;

$$

 *****  OTHER OBSERVATIONS NORTHEAST NORTH DAKOTA  *****

CITY           SKY/WX    TMP DP  RH WIND       PRES   REMARKS
WALHALLA       NOT AVBL
LANGDON        FAIR      45  45 100 W12       29.99S
CAVALIER       MOCLDY    54  41  62 W12       29.95F
GRAFTON        CLOUDY    55  43  62 NW10G17   29.98S
CANDO          NOT AVBL
FORT TOTTEN      N/A     53  40  61 NW7       29.95S
ROLLA            N/A     48  39  71 NW20      30.02S
RUGBY          NOT AVBL
 ***** THE ABOVE OBSERVATIONS ARE NON NWS ARE NOT QUALITY
        CONTROLLED AND MAY MIS-REPORT RAIN FOR SNOW...
$$

 *****  OTHER OBSERVATIONS SOUTHEAST NORTH DAKOTA *****

CITY           SKY/WX    TMP DP  RH WIND       PRES   REMARKS
COOPERSTOWN    FAIR      48  41  76 W10       30.02F
VALLEY CITY    FAIR      48  41  76 W10       30.05S
OAKES          NOT AVBL
GWINNER        CLEAR     48  41  76 W8        30.06S
SHEYENNE NWR     N/A     47  38  71 W3        29.95
BUFFALO        NOT AVBL
WYNDMERE       NOT AVBL
 ***** THE ABOVE OBSERVATIONS ARE NON NWS ARE NOT QUALITY
       CONTROLLED AND MAY MIS-REPORT RAIN FOR SNOW...
$$

  *****  WEATHER ACROSS NORTHERN MINNESOTA  *****

CITY           SKY/WX    TMP DP  RH WIND       PRES   REMARKS
FLAG ISLAND    CLOUDY    54  50  87 NW15      29.87S
WARROAD        CLOUDY    54  48  82 W9        29.91R
ROSEAU           N/A     52  46  82 W9        29.91S
HALLOCK        CLOUDY    54  45  71 W7        29.94S
THF RVR FALLS  CLOUDY    53  42  66 W9        29.96S
6HR MIN TEMP:  53; 6HR MAX TEMP:  60;

HALSTAD        NOT AVBL
FOSSTON        CLOUDY    48  41  76 W7        29.97S
BAUDETTE       CLOUDY    51  50  96 W9        29.89S
6HR MIN TEMP:  51; 6HR MAX TEMP:  56; 6HR PCP: TRACE;

WASKISH        CLOUDY    55  48  76 W14G20    29.91S
CROOKSTON      CLOUDY    54  43  66 NW8       29.97F
$$
  *****  WEATHER ACROSS CENTRAL AND WEST MINNESOTA  *****

CITY           SKY/WX    TMP DP  RH WIND       PRES   REMARKS
BEMIDJI        MOCLDY    51  41  67 W10       29.94S
PARK RAPIDS    FAIR      52  38  58 NW10      29.96S
6HR MIN TEMP:  52; 6HR MAX TEMP:  63;

WADENA         MOCLDY    52  41  66 NW8       29.98S
DETROIT LAKES  MOCLDY    52  39  62 NW9       30.00S
MOORHEAD       FAIR      52  37  58 W9        30.01F
FERGUS FALLS   MOCLDY    52  41  66 NW7       30.00S
ELBOW LAKE     FAIR      53  40  61 W10       30.02S
6HR MIN TEMP:  53; 6HR MAX TEMP:  63;

MORRIS MN      FAIR      54  43  66 NW8       30.02S
STAPLES        CLOUDY    54  41  62 NW8       29.97S
WHEATON        FAIR      54  41  62 W9        30.05S
$$
  *****  WEATHER ELSEWHERE ACROSS MINNESOTA  *****

CITY           SKY/WX    TMP DP  RH WIND       PRES   REMARKS
DULUTH         FAIR      52  49  89 NW12      29.87R
6HR MIN TEMP:  52; 6HR MAX TEMP:  62; 6HR PCP:  0.01;

INTRNTL FALLS  CLOUDY    53  50  89 W9        29.87S
6HR MIN TEMP:  53; 6HR MAX TEMP:  60; 6HR PCP: TRACE;

ELY            RAIN      54  52  94 W5        29.84S
CLOQUET        CLOUDY    54  46  76 W6        29.89R
BRAINERD       MOCLDY    55  47  74 NW8       29.96R
6HR MIN TEMP:  55; 6HR MAX TEMP:  62;

HIBBING        CLOUDY    52  48  86 NW14      29.88S
6HR MIN TEMP:  52; 6HR MAX TEMP:  59;

ALEXANDRIA     FAIR      54  43  66 W10       30.01S
6HR MIN TEMP:  54; 6HR MAX TEMP:  63;

SAINT CLOUD    CLOUDY    57  46  66 NW9       29.96R
6HR MIN TEMP:  56; 6HR MAX TEMP:  67;

MINNEAPOLIS    MOCLDY    62  46  55 NW13      29.95R
6HR MIN TEMP:  61; 6HR MAX TEMP:  69;

$$

  *****  WEATHER ACROSS SOUTH DAKOTA  *****

CITY           SKY/WX    TMP DP  RH WIND       PRES   REMARKS
SIOUX FALLS    FAIR      52  43  71 W8        30.10R
6HR MIN TEMP:  52; 6HR MAX TEMP:  68;

BROOKINGS      FAIR      48  42  80 NW7       30.10R
WATERTOWN      FAIR      53  42  66 NW9       30.08S
6HR MIN TEMP:  52; 6HR MAX TEMP:  64;

HURON          FAIR      47  44  90 W6        30.13R
6HR MIN TEMP:  47; 6HR MAX TEMP:  68;

SISSETON         N/A     53  40  61 NW9       30.04S
ABERDEEN       FAIR      45  38  76 W3        30.10S
6HR MIN TEMP:  45; 6HR MAX TEMP:  67;

MITCHELL       FAIR      53  40  61 W7        30.14R
PIERRE         FAIR      48  39  71 NW7       30.15R
6HR MIN TEMP:  48; 6HR MAX TEMP:  69;

MOBRIDGE       FAIR      44  37  76 CALM      30.11F
RAPID CITY     FAIR      45  29  53 NW8       30.24S
6HR MIN TEMP:  44; 6HR MAX TEMP:  69;

$$

  *****  SOME WEATHER IN NEARBY STATES *****

CITY           SKY/WX    TMP DP  RH WIND       PRES   REMARKS
GLASGOW MT     FAIR      51  30  44 N5        30.19S
6HR MIN TEMP:  50; 6HR MAX TEMP:  69;

GREAT FALLS MT CLOUDY    57  40  52 NE7       30.31S
6HR MIN TEMP:  57; 6HR MAX TEMP:  65;

CHEYENNE WY    MOCLDY    53  43  68 CALM      30.36S
6HR MIN TEMP:  53; 6HR MAX TEMP:  65;

SCOTTSBLUFF NE FAIR      54  35  48 NE6       30.29R
6HR MIN TEMP:  52; 6HR MAX TEMP:  74;

OMAHA NE       FAIR      60  47  61 CALM      30.12R
6HR MIN TEMP:  59; 6HR MAX TEMP:  74;

DES MOINES IA  FAIR      62  50  64 W5        30.05R
6HR MIN TEMP:  62; 6HR MAX TEMP:  73;

DAVENPORT IA   FAIR      60  56  86 W10       29.96R
6HR MIN TEMP:  60; 6HR MAX TEMP:  72;

CHICAGO IL     FAIR      66  54  65 W9        29.86R
6HR MIN TEMP:  66; 6HR MAX TEMP:  79;

EAU CLAIRE WI  CLOUDY    59  52  77 W10       29.89R
6HR MIN TEMP:  59; 6HR MAX TEMP:  68; 6HR PCP: TRACE;

LA CROSSE WI   CLOUDY    68  55  63 NW15      29.91R
6HR MIN TEMP:  67; 6HR MAX TEMP:  76; 6HR PCP: TRACE;

$$

  *****  SOME NATIONAL WEATHER *****

CITY           SKY/WX    TMP DP  RH WIND       PRES   REMARKS
LA GUARDIA NY  MOCLDY    78  74  87 SW13      29.62R


USA.gov is the U.S. government's official web portal to all federal, state and local government web resources and services.